Regional Weather Roundup
Issued by NWS

Home | Current Version | Previous Version | Text Only | Print | Product List | Glossary On
Versions: 1 2 3 4 5 6 7 8 9 10 11 12 13 14 15 16 17 18 19 20 21 22 23 24 25 26 27 28 29 30 31 32 33 34 35 36 37 38 39 40 41 42 43 44 45 46 47 48 49 50
000
ASUS44 KOUN 161800
RWROK

WEATHER ROUNDUP FOR OKLAHOMA
NATIONAL WEATHER SERVICE NORMAN OK
100 PM CDT WED AUG 16 2017

NOTE: "FAIR" INDICATES FEW OR NO CLOUDS BELOW 12,000 FEET WITH NO
      SIGNIFICANT WEATHER AND/OR OBSTRUCTIONS TO VISIBILITY.

OKZ001>007-009>012-014-015-017-161900-
NORTHWEST OKLAHOMA AND THE PANHANDLE

CITY           SKY/WX    TMP DP  RH WIND       PRES   REMARKS
GAGE           SUNNY     87  69  54 SW9       29.89S HX  91
6HR MIN TEMP:  72; 6HR MAX TEMP:  87;

GUYMON         SUNNY     83  60  45 N13       29.98S
ENID/WOODRING  PTSUNNY   88  75  66 SW17      29.83F HX  97
$$

OKZ016-021>023-033>039-044-045-161900-
SOUTHWEST OKLAHOMA

CITY           SKY/WX    TMP DP  RH WIND       PRES   REMARKS
LAWTON/REGL    CLOUDY    87  75  67 S18G29    29.88F HX  96
6HR MIN TEMP:  75; 6HR MAX TEMP:  89;

LAWTON/FT SILL MOSUNNY   89  78  70 S17G23    29.86F HX 103
FREDERICK      SUNNY     90  74  59 S18G25    29.85F HX  99
CLINTON        CLOUDY    86  71  60 S15       29.90S HX  91
HOBART         SUNNY     87  72  60 SW21      29.88S HX  93
ALTUS AFB      SUNNY     89  70  53 S18G26    29.87F HX  94
$$

OKZ018>020-024>031-161900-
CENTRAL OKLAHOMA

CITY           SKY/WX    TMP DP  RH WIND       PRES   REMARKS
OKLAHOMA CITY  PTSUNNY   87  74  64 S15       29.89R HX  95
6HR MIN TEMP:  74; 6HR MAX TEMP:  88;

OKC/WILEY POST MOSUNNY   89  75  63 S18G26    29.87F HX  99
STILLWATER     SUNNY     91  71  51 SW17      29.84F HX  97
GUTHRIE        SUNNY     89  73  59 S15G22    29.85F HX  97
$$

OKZ008-013-054>072-161900-
NORTHEAST OKLAHOMA

CITY           SKY/WX    TMP DP  RH WIND       PRES   REMARKS
TULSA          CLOUDY    88  76  67 S15       29.86S HX  99
6HR MIN TEMP:  75; 6HR MAX TEMP:  90;

TULSA/JONES    CLOUDY    87  74  64 S14       29.88R HX  95
PONCA CITY     CLOUDY    89  73  59 SW8G18    29.83F HX  97
BARTLESVILLE   CLOUDY    87  77  72 S7        29.86S HX  99
MUSKOGEE       CLOUDY    79  73  82 S16G24    29.95R
$$

OKZ032-040>043-046>053-073>077-161900-
SOUTH CENTRAL/SOUTHEAST OKLAHOMA

CITY           SKY/WX    TMP DP  RH WIND       PRES   REMARKS
MCALESTER      RAIN      77  75  93 S5        29.95S FOG
$$





USA.gov is the U.S. government's official web portal to all federal, state and local government web resources and services.